Location: Lake Runnemede Observatory
(43.4843°N, 72.3851°W)
Time: 19:38:14
(UTC-05:00)

Amateur Radio Satellites - All Passes

Search period start: 20 February 2017 19:08
Search period end: 21 February 2017 19:08
Location: Lake Runnemede Observatory, 43.4843°N, 72.3851°W

Satellite Date Start Highest point End Downlink Frequencies (MHz)
Time Altitude Azimuth
CUBEBUG 2 20 Feb 19:11:21 19:15:42 90° 210° (SSW) 19:20:15 437.445
SEEDS 20 Feb 19:22:01 19:26:05 44° 262° (W) 19:30:09 437.485
STRAND 1 20 Feb 19:24:11 19:29:23 86° 108° (ESE) 19:34:32 437.568
AAUSAT CUBESAT 2 20 Feb 19:27:20 19:31:30 77° 258° (WSW) 19:35:42 437.432
AO-73 20 Feb 19:49:10 19:53:34 80° 75° (ENE) 19:58:06 145.935
CUTE 1.7 + AOD 2 20 Feb 19:51:48 19:54:23 16° 269° (W) 19:56:58 437.475
UWE-3 20 Feb 20:00:34 20:04:44 43° 262° (W) 20:09:04 435.000/436.395/437.385
Oscar 11 20 Feb 20:02:56 20:07:18 82° 260° (W) 20:11:41 .
DELFI C3 20 Feb 20:13:21 20:17:05 40° 72° (ENE) 20:20:49 145.870
HO-68 20 Feb 20:23:06 20:27:31 17° 271° (W) 20:31:58 435.675
ZACube-1 20 Feb 20:34:14 20:38:10 32° 264° (W) 20:42:13 437.345
STRAND 1 20 Feb 21:05:16 21:07:49 14° 302° (WNW) 21:10:23 437.568
YUBILEINY 20 Feb 21:05:48 21:14:15 50° 74° (ENE) 21:22:36 435.215
RS-15 20 Feb 21:06:57 21:17:39 33° 336° (NNW) 21:28:32 29.354- 29.394
ESTCUBE 1 20 Feb 21:13:51 21:16:43 17° 63° (ENE) 21:19:34 437.505/2401.250
FO-29 20 Feb 21:17:12 21:22:49 21° 87° (E) 21:28:08 435.910
AO-73 20 Feb 21:30:04 21:30:24 10° 273° (W) 21:30:44 145.935
PRISM 20 Feb 21:32:33 21:36:38 84° 285° (WNW) 21:40:41 437.425
UNISAT 6 20 Feb 21:40:42 21:45:17 48° 99° (E) 21:49:49 437.425
TIGRISAT 20 Feb 21:42:41 21:47:16 47° 99° (E) 21:51:46 435.000
DELFI C3 20 Feb 21:49:31 21:52:03 16° 268° (W) 21:54:35 145.870
VELOX 1 20 Feb 22:02:11 22:05:07 18° 63° (ENE) 22:08:03 145.980
DX 1 20 Feb 22:13:28 22:14:28 11° 59° (ENE) 22:15:27 434.975-435.025
O/OREOS (USA 219) 20 Feb 22:15:14 22:17:27 14° 98° (E) 22:19:41 437.305
AIST 2D 20 Feb 22:18:19 22:20:23 15° 92° (E) 22:22:28 435.315
POLYITAN 1 20 Feb 22:27:11 22:29:16 13° 90° (E) 22:31:21 437.675
QB50P2 20 Feb 22:29:32 22:32:03 15° 91° (E) 22:34:34 145.880/145.840
NANOSAT C BR1 20 Feb 22:31:42 22:33:50 13° 90° (E) 22:35:58 145.865
UKube-1 20 Feb 22:35:06 22:37:07 13° 61° (ENE) 22:39:08 .
SPROUT 20 Feb 22:48:35 22:52:32 39° 71° (ENE) 22:56:32 437.525
ESTCUBE 1 20 Feb 22:48:39 22:53:05 55° 260° (W) 22:57:32 437.505/2401.250
SO-50 20 Feb 22:54:05 22:58:34 46° 118° (ESE) 23:03:00 436.795
FO-29 20 Feb 23:00:49 23:08:41 81° 287° (WNW) 23:15:55 435.910
YUBILEINY 20 Feb 23:03:00 23:10:48 38° 275° (W) 23:18:32 435.215
UNISAT 6 20 Feb 23:18:13 23:21:37 20° 296° (WNW) 23:25:01 437.425
TIGRISAT 20 Feb 23:20:08 23:23:35 21° 296° (WNW) 23:27:02 435.000
50 SAT 20 Feb 23:23:09 23:26:41 89° 80° (E) 23:30:13 437.505
BUGSAT 1 20 Feb 23:24:50 23:27:32 16° 92° (E) 23:30:15 437.445
RS-15 20 Feb 23:25:03 23:35:16 28° 11° (N) 23:45:21 29.354- 29.394
VELOX 1 20 Feb 23:36:58 23:41:12 48° 260° (W) 23:45:28 145.980
DUCHIFAT 1 20 Feb 23:40:39 23:44:56 70° 103° (ESE) 23:49:10 145.980
EO-79 20 Feb 23:45:15 23:49:34 87° 284° (WNW) 23:53:51 145.935-145.965
DX 1 20 Feb 23:45:38 23:49:58 85° 258° (WSW) 23:54:19 434.975-435.025
AIST 2D 20 Feb 23:50:28 23:53:46 35° 288° (WNW) 23:57:01 435.315
O/OREOS (USA 219) 20 Feb 23:51:53 23:56:17 61° 296° (WNW) 00:00:45 437.305
PCSat 20 Feb 23:52:40 23:54:57 13° 32° (NNE) 23:57:15 145.827
POLYITAN 1 21 Feb 00:01:11 00:05:26 58° 286° (WNW) 00:09:38 437.675
QB50P2 21 Feb 00:03:58 00:08:08 50° 288° (WNW) 00:12:17 145.880/145.840
NANOSAT C BR1 21 Feb 00:05:42 00:09:53 57° 287° (WNW) 00:14:05 145.865
UKube-1 21 Feb 00:08:20 00:12:36 67° 258° (WSW) 00:16:54 .
SPROUT 21 Feb 00:25:35 00:28:37 19° 267° (W) 00:31:40 437.525
SO-50 21 Feb 00:35:16 00:39:12 26° 317° (NW) 00:43:08 436.795
FO-29 21 Feb 00:47:18 00:52:27 20° 307° (NW) 00:57:25 435.910
Oscar 19 21 Feb 00:57:38 01:02:32 44° 99° (E) 01:07:25 437.125/150
BUGSAT 1 21 Feb 00:59:05 01:03:07 45° 288° (WNW) 01:07:10 437.445
Gurwin Techsat 1B 21 Feb 01:01:35 01:06:06 28° 95° (E) 01:10:36 435.225
MOZHAYETS 4 21 Feb 01:03:36 01:05:32 12° 60° (ENE) 01:07:28
DUCHIFAT 1 21 Feb 01:18:13 01:20:02 12° 299° (WNW) 01:21:49 145.980
ITUPSAT 1 21 Feb 01:21:23 01:26:01 50° 71° (ENE) 01:30:41 437.325
BEESAT 21 Feb 01:31:23 01:36:06 64° 73° (ENE) 01:40:51 436.000
PCSat 21 Feb 01:34:18 01:39:38 53° 54° (NE) 01:44:56 145.827
RS-15 21 Feb 01:39:23 01:51:30 54° 43° (NE) 02:03:08 29.354- 29.394
AO-7 21 Feb 02:07:08 02:13:02 21° 91° (E) 02:18:52 .
KKS-1 21 Feb 02:10:45 02:13:27 16° 62° (ENE) 02:16:10 437.445
MOZHAYETS 4 21 Feb 02:37:23 02:42:01 82° 257° (WSW) 02:46:42
Oscar 19 21 Feb 02:37:30 02:41:36 25° 296° (WNW) 02:45:42 437.125/150
Gurwin Techsat 1B 21 Feb 02:41:11 02:46:10 40° 292° (WNW) 02:51:05 435.225
STARS 21 Feb 02:58:15 03:01:36 22° 65° (ENE) 03:04:59 437.465
ITAMSAT 1 21 Feb 02:59:11 03:04:23 61° 102° (ESE) 03:09:33 435.822/435.867
ITUPSAT 1 21 Feb 03:00:44 03:04:07 19° 268° (W) 03:07:31 437.325
BEESAT 21 Feb 03:11:40 03:14:19 15° 270° (W) 03:16:59 436.000
PCSat 21 Feb 03:18:25 03:22:40 24° 253° (WSW) 03:26:53 145.827
CUBESAT XI-V 21 Feb 03:23:18 03:27:48 49° 72° (ENE) 03:32:18 437.345
M-CUBED/EXP-1 PRIME 21 Feb 03:31:49 03:34:59 42° 67° (ENE) 03:38:06 437.505
KKS-1 21 Feb 03:45:14 03:49:34 55° 259° (W) 03:53:57 437.445
RS-15 21 Feb 03:52:23 04:04:09 55° 248° (WSW) 04:15:26 29.354- 29.394
AO-7 21 Feb 03:58:22 04:06:45 86° 289° (WNW) 04:15:02 .
STARS 21 Feb 04:33:41 04:37:44 37° 262° (W) 04:41:49 437.465
AO-85 21 Feb 04:37:14 04:41:19 32° 116° (ESE) 04:45:08 145.980
ITAMSAT 1 21 Feb 04:39:41 04:43:22 20° 299° (WNW) 04:47:02 435.822/435.867
DOVE 4 21 Feb 05:00:38 05:03:54 19° 93° (E) 05:07:16 437.250
CUBESAT XI-V 21 Feb 05:02:15 05:05:26 18° 268° (W) 05:08:38 437.345
STRAND 1 21 Feb 05:04:01 05:07:36 19° 61° (ENE) 05:11:11 437.568
M-CUBED/EXP-1 PRIME 21 Feb 05:09:00 05:09:42 10° 263° (W) 05:10:24 437.505
CUTE-I 21 Feb 05:11:24 05:15:25 21° 92° (E) 05:19:25 437.470
XW-2F 21 Feb 05:12:41 05:15:22 18° 93° (E) 05:18:01 145.980 - 146.000
XW-2D 21 Feb 05:14:06 05:16:58 20° 93° (E) 05:19:48 145.860 - 145.880
KAITUO 1B 21 Feb 05:16:26 05:18:55 17° 92° (E) 05:21:24 145.475/437.950
XW-2B 21 Feb 05:18:54 05:21:55 22° 94° (E) 05:24:55 145.730 - 145.750
XW-2C 21 Feb 05:27:05 05:30:25 27° 96° (E) 05:33:42 145.795 - 145.815
LilacSat-2 21 Feb 05:38:22 05:42:02 38° 98° (E) 05:45:38 437.200
SO-50 21 Feb 05:45:32 05:47:11 12° 31° (NNE) 05:48:51 436.795
AO-7 21 Feb 05:52:28 05:58:23 22° 311° (NW) 06:04:18 .
NUDT-PHONESAT 21 Feb 05:56:29 06:00:11 50° 100° (E) 06:03:50 437.300
HO-68 21 Feb 06:00:16 06:04:11 15° 88° (E) 06:08:05 435.675
RS-15 21 Feb 06:12:21 06:13:29 10° 270° (W) 06:14:36 29.354- 29.394
AO-85 21 Feb 06:17:41 06:21:41 31° 312° (NW) 06:25:28 145.980
DOVE 4 21 Feb 06:37:24 06:41:47 48° 287° (WNW) 06:46:24 437.250
STRAND 1 21 Feb 06:41:14 06:46:18 60° 259° (W) 06:51:25 437.568
XW-2F 21 Feb 06:46:09 06:49:37 33° 289° (WNW) 06:53:02 145.980 - 146.000
XW-2D 21 Feb 06:47:49 06:51:12 30° 290° (WNW) 06:54:35 145.860 - 145.880
KAITUO 1B 21 Feb 06:49:36 06:53:05 35° 289° (WNW) 06:56:31 145.475/437.950
CUTE-I 21 Feb 06:50:32 06:55:46 54° 289° (WNW) 07:00:59 437.470
XW-2B 21 Feb 06:52:49 06:56:07 28° 290° (WNW) 06:59:23 145.730 - 145.750
XW-2A 21 Feb 06:53:27 06:56:48 44° 99° (E) 07:00:08 145.665 - 145.685
XW-2C 21 Feb 07:01:27 07:04:30 22° 292° (WNW) 07:07:30 145.795 - 145.815
CUBEBUG 2 21 Feb 07:01:37 07:05:03 20° 91° (E) 07:08:29 437.445
SEEDS 21 Feb 07:04:48 07:08:21 26° 95° (E) 07:11:53 437.485
BEESAT 3 21 Feb 07:05:21 07:09:11 58° 120° (ESE) 07:13:04 437.485
AAUSAT CUBESAT 2 21 Feb 07:09:35 07:11:57 15° 91° (E) 07:14:18 437.432
LilacSat-2 21 Feb 07:13:30 07:16:00 17° 295° (WNW) 07:18:29 437.200
SO-50 21 Feb 07:24:12 07:28:40 56° 52° (NE) 07:33:04 436.795
NUDT-PHONESAT 21 Feb 07:31:55 07:33:41 13° 296° (WNW) 07:35:27 437.300
BEESAT 2 21 Feb 07:32:52 07:36:39 47° 119° (ESE) 07:40:30 435.950
FO-29 21 Feb 07:33:16 07:36:12 13° 47° (NE) 07:39:11 435.910
CUTE 1.7 + AOD 2 21 Feb 07:33:20 07:37:36 85° 103° (ESE) 07:41:48 437.475
AO-73 21 Feb 07:37:19 07:39:59 15° 90° (E) 07:42:37 145.935
HO-68 21 Feb 07:45:42 07:52:53 85° 104° (ESE) 08:00:04 435.675
UWE-3 21 Feb 07:48:43 07:53:03 36° 96° (E) 07:57:20 435.000/436.395/437.385
Oscar 11 21 Feb 07:50:02 07:52:52 17° 91° (E) 07:55:41 .
ISS 21 Feb 08:18:52 08:20:26 13° 131° (SE) 08:22:00 437.550
ZACube-1 21 Feb 08:20:44 08:25:10 46° 98° (E) 08:29:31 437.345
O/OREOS (USA 219) 21 Feb 08:21:33 08:25:43 34° 59° (ENE) 08:29:53 437.305
PRISM 21 Feb 08:22:31 08:26:35 79° 77° (ENE) 08:30:41 437.425
XW-2A 21 Feb 08:27:47 08:29:11 12° 295° (WNW) 08:30:35 145.665 - 145.685
CUBEBUG 2 21 Feb 08:37:19 08:41:54 48° 288° (WNW) 08:46:27 437.445
UNISAT 6 21 Feb 08:40:22 08:44:38 47° 72° (ENE) 08:49:02 437.425
SEEDS 21 Feb 08:40:27 08:43:59 27° 292° (WNW) 08:47:30 437.485
TIGRISAT 21 Feb 08:42:13 08:46:27 45° 71° (ENE) 08:50:50 435.000
AAUSAT CUBESAT 2 21 Feb 08:43:43 08:47:40 47° 288° (WNW) 08:51:36 437.432
BEESAT 3 21 Feb 08:44:25 08:47:08 18° 319° (NW) 08:49:53 437.485
Tancredo 1 21 Feb 08:54:08 08:56:59 28° 138° (SE) 08:59:50 437.200
SO-50 21 Feb 09:05:43 09:08:41 17° 249° (WSW) 09:11:38 436.795
BEESAT 2 21 Feb 09:11:38 09:14:40 20° 317° (NW) 09:17:44 435.950
AO-73 21 Feb 09:12:05 09:16:35 57° 287° (WNW) 09:20:59 145.935
CUTE 1.7 + AOD 2 21 Feb 09:12:29 09:12:45 10° 300° (WNW) 09:12:59 437.475
FO-29 21 Feb 09:12:41 09:19:26 55° 68° (ENE) 09:26:53 435.910
POLYITAN 1 21 Feb 09:21:33 09:23:21 13° 61° (ENE) 09:25:10 437.675
DELFI C3 21 Feb 09:23:43 09:27:35 56° 100° (E) 09:31:26 145.870
QB50P2 21 Feb 09:23:48 09:26:03 14° 62° (ENE) 09:28:17 145.880/145.840
Oscar 11 21 Feb 09:25:05 09:29:15 46° 288° (WNW) 09:33:22 .
UWE-3 21 Feb 09:25:28 09:29:18 26° 294° (WNW) 09:33:07 435.000/436.395/437.385
NANOSAT C BR1 21 Feb 09:25:36 09:27:25 13° 61° (ENE) 09:29:13 145.865
HO-68 21 Feb 09:34:42 09:39:46 21° 306° (NW) 09:44:51 435.675
ISS 21 Feb 09:53:10 09:56:28 85° 328° (NNW) 09:59:47 437.550
ZACube-1 21 Feb 09:57:47 10:01:06 20° 296° (WNW) 10:04:22 437.345
O/OREOS (USA 219) 21 Feb 10:01:11 10:04:59 26° 257° (WSW) 10:08:46 437.305
YUBILEINY 21 Feb 10:07:47 10:16:17 55° 90° (E) 10:24:46 435.215
BUGSAT 1 21 Feb 10:16:29 10:18:32 14° 62° (ENE) 10:20:36 437.445
UNISAT 6 21 Feb 10:18:35 10:21:37 18° 269° (W) 10:24:43 437.425
TIGRISAT 21 Feb 10:20:18 10:23:23 18° 269° (W) 10:26:33 435.000
AIST 2D 21 Feb 10:25:22 10:28:54 87° 257° (WSW) 10:32:29 435.315
Tancredo 1 21 Feb 10:30:03 10:33:11 43° 335° (NNW) 10:36:19 437.200
DUCHIFAT 1 21 Feb 10:33:12 10:37:18 57° 73° (ENE) 10:41:27 145.980
EO-79 21 Feb 10:38:20 10:42:32 79° 75° (ENE) 10:46:47 145.935-145.965
ESTCUBE 1 21 Feb 10:40:09 10:44:00 27° 95° (E) 10:47:49 437.505/2401.250
Oscar 19 21 Feb 10:41:07 10:42:11 11° 55° (NE) 10:43:15 437.125/150
POLYITAN 1 21 Feb 10:54:22 10:58:34 69° 259° (W) 11:02:50 437.675
QB50P2 21 Feb 10:57:11 11:01:21 59° 259° (W) 11:05:34 145.880/145.840
NANOSAT C BR1 21 Feb 10:58:23 11:02:33 67° 258° (WSW) 11:06:47 145.865
FO-29 21 Feb 10:58:44 11:04:47 32° 269° (W) 11:11:24 435.910
DELFI C3 21 Feb 11:00:10 11:01:55 13° 297° (WNW) 11:03:39 145.870
VELOX 1 21 Feb 11:25:52 11:29:39 28° 96° (E) 11:33:26 145.980
ISS 21 Feb 11:30:32 11:33:17 24° 347° (NNW) 11:36:03 437.550
DX 1 21 Feb 11:33:53 11:36:23 15° 92° (E) 11:38:53 434.975-435.025
BUGSAT 1 21 Feb 11:49:28 11:53:25 56° 259° (W) 11:57:28 437.445
UKube-1 21 Feb 11:55:00 11:57:58 18° 93° (E) 12:00:57 .
YUBILEINY 21 Feb 12:05:31 12:13:25 36° 291° (WNW) 12:21:21 435.215
Tancredo 1 21 Feb 12:07:36 12:10:03 19° 354° (N) 12:12:32 437.200
SPROUT 21 Feb 12:08:28 12:12:46 66° 102° (ESE) 12:17:03 437.525
DUCHIFAT 1 21 Feb 12:11:25 12:13:20 13° 270° (W) 12:15:17 145.980
Oscar 19 21 Feb 12:15:27 12:20:35 73° 74° (ENE) 12:25:44 437.125/150
ESTCUBE 1 21 Feb 12:16:52 12:20:46 30° 292° (WNW) 12:24:39 437.505/2401.250
50 SAT 21 Feb 12:19:57 12:23:26 83° 104° (ESE) 12:26:54 437.505
Gurwin Techsat 1B 21 Feb 12:23:35 12:28:41 49° 70° (ENE) 12:33:48 435.225
ITAMSAT 1 21 Feb 12:41:44 12:44:40 15° 58° (ENE) 12:47:36 435.822/435.867
VELOX 1 21 Feb 13:02:15 13:06:03 29° 292° (WNW) 13:09:52 145.980
AO-7 21 Feb 13:07:04 13:14:23 35° 57° (ENE) 13:21:42 .
AO-85 21 Feb 13:07:08 13:10:46 35° 49° (NE) 13:14:24 145.980
ISS 21 Feb 13:07:58 13:10:32 20° 7° (N) 13:13:05 437.550
DX 1 21 Feb 13:08:39 13:12:53 53° 288° (WNW) 13:17:06 434.975-435.025
ITUPSAT 1 21 Feb 13:23:01 13:24:32 11° 88° (E) 13:26:03 437.325
UKube-1 21 Feb 13:30:07 13:34:12 43° 289° (WNW) 13:38:17 .
BEESAT 21 Feb 13:31:45 13:34:24 15° 90° (E) 13:37:02 436.000
Tancredo 1 21 Feb 13:44:23 13:47:08 24° 15° (NNE) 13:49:51 437.200
SPROUT 21 Feb 13:46:05 13:48:08 13° 299° (WNW) 13:50:12 437.525
Oscar 19 21 Feb 13:57:42 14:00:26 14° 270° (W) 14:03:11 437.125/150
Gurwin Techsat 1B 21 Feb 14:04:45 14:08:52 23° 267° (W) 14:13:01 435.225
ITAMSAT 1 21 Feb 14:18:15 14:23:27 80° 255° (WSW) 14:28:43 435.822/435.867
MOZHAYETS 4 21 Feb 14:31:55 14:35:28 22° 93° (E) 14:39:00
ISS 21 Feb 14:44:20 14:47:33 48° 27° (NNE) 14:50:44 437.550
AO-85 21 Feb 14:47:55 14:50:56 22° 246° (WSW) 14:54:00 145.980
ITUPSAT 1 21 Feb 14:58:08 15:02:58 81° 285° (WNW) 15:07:45 437.325
AO-7 21 Feb 14:58:31 15:06:44 60° 256° (WSW) 15:15:01 .
BEESAT 21 Feb 15:07:51 15:12:36 64° 287° (WNW) 15:17:19 436.000
Tancredo 1 21 Feb 15:20:30 15:23:44 84° 214° (SSW) 15:26:56 437.200
BEESAT 3 21 Feb 15:21:04 15:24:59 49° 52° (NE) 15:28:53 437.485
CUBESAT XI-V 21 Feb 15:21:10 15:22:18 11° 88° (E) 15:23:27 437.345
KKS-1 21 Feb 15:35:14 15:38:56 25° 95° (E) 15:42:36 437.445
BEESAT 2 21 Feb 15:49:24 15:53:17 42° 50° (NE) 15:57:08 435.950
XW-2F 21 Feb 15:56:15 15:57:36 12° 63° (ENE) 15:58:57 145.980 - 146.000
XW-2D 21 Feb 15:57:42 15:59:27 13° 63° (ENE) 16:01:12 145.860 - 145.880
KAITUO 1B 21 Feb 15:59:35 16:00:22 10° 62° (ENE) 16:01:07 145.475/437.950
XW-2B 21 Feb 16:02:19 16:04:20 14° 64° (ENE) 16:06:23 145.730 - 145.750
RS-15 21 Feb 16:06:57 16:15:48 25° 100° (E) 16:24:51 29.354- 29.394
DOVE 4 21 Feb 16:08:04 16:10:59 19° 65° (ENE) 16:13:55 437.250
MOZHAYETS 4 21 Feb 16:08:27 16:12:47 40° 290° (WNW) 16:17:03
XW-2C 21 Feb 16:10:09 16:12:43 17° 66° (ENE) 16:15:16 145.795 - 145.815
PCSat 21 Feb 16:17:16 16:22:12 37° 112° (ESE) 16:27:10 145.827
ISS 21 Feb 16:21:08 16:23:51 24° 224° (SW) 16:26:33 437.550
STARS 21 Feb 16:21:29 16:25:32 34° 97° (E) 16:29:34 437.465
LilacSat-2 21 Feb 16:21:34 16:24:41 24° 68° (ENE) 16:27:50 437.200
HO-68 21 Feb 16:31:40 16:35:33 16° 50° (NE) 16:39:26 435.675
CUTE-I 21 Feb 16:34:02 16:38:55 38° 67° (ENE) 16:43:51 437.470
NUDT-PHONESAT 21 Feb 16:37:11 16:40:23 27° 69° (ENE) 16:43:37 437.300
ITUPSAT 1 21 Feb 16:38:53 16:39:58 11° 303° (WNW) 16:41:04 437.325
M-CUBED/EXP-1 PRIME 21 Feb 16:42:38 16:45:47 27° 103° (ESE) 16:49:09 437.505
CUBESAT XI-V 21 Feb 16:55:38 17:00:15 78° 285° (WNW) 17:04:49 437.345
Tancredo 1 21 Feb 16:58:51 16:59:32 10° 230° (SW) 17:00:11 437.200
BEESAT 3 21 Feb 16:59:40 17:02:13 16° 249° (WSW) 17:04:45 437.485
KKS-1 21 Feb 17:11:29 17:15:31 33° 292° (WNW) 17:19:31 437.445
XW-2A 21 Feb 17:26:42 17:29:07 18° 68° (ENE) 17:31:33 145.665 - 145.685
XW-2F 21 Feb 17:27:27 17:31:14 60° 260° (W) 17:35:04 145.980 - 146.000
BEESAT 2 21 Feb 17:27:49 17:30:47 20° 248° (WSW) 17:33:43 435.950
XW-2D 21 Feb 17:29:26 17:33:11 54° 260° (W) 17:36:59 145.860 - 145.880
KAITUO 1B 21 Feb 17:30:03 17:33:50 67° 259° (W) 17:37:38 145.475/437.950
XW-2B 21 Feb 17:34:25 17:38:08 48° 261° (W) 17:41:54 145.730 - 145.750
XW-2C 21 Feb 17:43:02 17:46:38 37° 263° (W) 17:50:15 145.795 - 145.815
DOVE 4 21 Feb 17:44:35 17:48:27 38° 262° (W) 17:52:20 437.250
LilacSat-2 21 Feb 17:55:34 17:58:52 26° 265° (W) 18:02:12 437.200
SEEDS 21 Feb 17:57:40 18:00:59 22° 67° (ENE) 18:04:17 437.485
STARS 21 Feb 17:58:08 18:01:43 24° 294° (WNW) 18:05:18 437.465
PCSat 21 Feb 18:00:37 18:05:35 36° 310° (NW) 18:10:36 145.827
CUBEBUG 2 21 Feb 18:01:14 18:04:12 18° 63° (ENE) 18:07:16 437.445
AAUSAT CUBESAT 2 21 Feb 18:01:39 18:03:29 13° 62° (ENE) 18:05:19 437.432
NUDT-PHONESAT 21 Feb 18:11:23 18:14:18 21° 266° (W) 18:17:16 437.300
CUTE-I 21 Feb 18:14:26 18:19:02 29° 265° (W) 18:23:40 437.470
RS-15 21 Feb 18:14:35 18:26:34 89° 122° (ESE) 18:39:03 29.354- 29.394
HO-68 21 Feb 18:14:55 18:22:02 71° 70° (ENE) 18:29:11 435.675
M-CUBED/EXP-1 PRIME 21 Feb 18:17:16 18:20:11 23° 296° (WNW) 18:23:17 437.505
CUTE 1.7 + AOD 2 21 Feb 18:26:33 18:30:48 68° 75° (ENE) 18:35:05 437.475
AO-73 21 Feb 18:34:21 18:36:45 14° 61° (ENE) 18:39:09 145.935
Oscar 11 21 Feb 18:46:16 18:48:57 16° 63° (ENE) 18:51:40 .
UWE-3 21 Feb 18:46:40 18:50:36 32° 69° (ENE) 18:54:38 435.000/436.395/437.385
STRAND 1 21 Feb 18:50:32 18:55:27 42° 98° (E) 19:00:19 437.568
XW-2A 21 Feb 18:58:52 19:01:43 25° 264° (W) 19:04:38 145.665 - 145.685
